| time (UTC) | temp F | wind direction | speed MPH | gust MPH | rain 1hr in | rain 24hr in | rain mn in | humidity % | barometer mb |
| 20260904135343 | 61 | 17 | 0.0 | 0.0 | 0.00 | 0.00 | 0.00 | 84 | 1011.7 |
| 20260904134840 | 60 | 1 | 0.0 | 0.0 | 0.00 | 0.00 | 0.00 | 84 | 1011.7 |
| 20260904134339 | 60 | 359 | 0.0 | 0.0 | 0.00 | 0.00 | 0.00 | 84 | 1011.7 |
| 20260904133834 | 61 | 9 | 0.0 | 1.0 | 0.00 | 0.00 | 0.00 | 83 | 1011.6 |
| 20260904133330 | 61 | 0 | 0.0 | 0.0 | 0.00 | 0.00 | 0.00 | 83 | 1011.5 |
| 20260904132829 | 61 | 15 | 0.0 | 0.0 | 0.00 | 0.00 | 0.00 | 83 | 1011.5 |
| 20260904132324 | 61 | 359 | 0.0 | 0.0 | 0.00 | 0.00 | 0.00 | 83 | 1011.5 |
| 20260904131824 | 61 | 275 | 0.0 | 0.0 | 0.00 | 0.00 | 0.00 | 83 | 1011.3 |
| 20260904131319 | 61 | 291 | 0.0 | 1.0 | 0.00 | 0.00 | 0.00 | 83 | 1011.6 |
| 20260904130814 | 61 | 322 | 0.0 | 1.0 | 0.00 | 0.00 | 0.00 | 83 | 1011.4 |
| 20260904130313 | 61 | 267 | 1.0 | 1.0 | 0.00 | 0.00 | 0.00 | 83 | 1011.5 |
| 20260904125809 | 62 | 8 | 0.0 | 0.0 | 0.00 | 0.00 | 0.00 | 82 | 1011.3 |
| 20260904125306 | 62 | 280 | 0.0 | 1.0 | 0.00 | 0.00 | 0.00 | 82 | 1011.1 |
| 20260904124804 | 62 | 295 | 0.0 | 1.0 | 0.00 | 0.00 | 0.00 | 82 | 1011.1 |
| 20260904124301 | 62 | 210 | 0.0 | 0.0 | 0.00 | 0.00 | 0.00 | 82 | 1011.2 |
| 20260904123755 | 62 | 250 | 1.0 | 1.0 | 0.00 | 0.00 | 0.00 | 82 | 1011.2 |
| 20260904123251 | 62 | 245 | 1.0 | 1.0 | 0.00 | 0.00 | 0.00 | 82 | 1011.0 |
| 20260904122746 | 62 | 284 | 0.0 | 1.0 | 0.00 | 0.00 | 0.00 | 81 | 1011.0 |
| 20260904122245 | 62 | 260 | 1.0 | 1.0 | 0.00 | 0.00 | 0.00 | 81 | 1011.0 |
| 20260904121741 | 62 | 276 | 1.0 | 1.0 | 0.00 | 0.00 | 0.00 | 81 | 1011.1 |
| 20260904121237 | 62 | 274 | 1.0 | 1.0 | 0.00 | 0.00 | 0.00 | 81 | 1011.2 |
| 20260904120733 | 62 | 284 | 0.0 | 1.0 | 0.00 | 0.00 | 0.00 | 81 | 1011.1 |
| 20260904120229 | 62 | 264 | 2.0 | 4.0 | 0.00 | 0.00 | 0.00 | 80 | 1010.8 |
| 20260904115724 | 62 | 261 | 2.0 | 4.0 | 0.00 | 0.00 | 0.00 | 80 | 1011.2 |
| 20260904115223 | 62 | 259 | 1.0 | 1.0 | 0.00 | 0.00 | 0.00 | 80 | 1011.4 |
| 20260904114719 | 62 | 280 | 1.0 | 1.0 | 0.00 | 0.00 | 0.00 | 80 | 1011.1 |
| 20260904114213 | 62 | 139 | 0.0 | 1.0 | 0.00 | 0.00 | 0.00 | 80 | 1011.2 |
| 20260904113708 | 63 | 244 | 1.0 | 1.0 | 0.00 | 0.00 | 0.00 | 80 | 1010.9 |
| 20260904113207 | 62 | 242 | 1.0 | 2.0 | 0.00 | 0.00 | 0.00 | 80 | 1011.0 |
| 20260904112703 | 62 | 255 | 2.0 | 2.0 | 0.00 | 0.00 | 0.00 | 80 | 1010.9 |
| 20260904112158 | 62 | 106 | 0.0 | 0.0 | 0.00 | 0.00 | 0.00 | 79 | 1010.9 |
| 20260904111654 | 63 | 2 | 0.0 | 0.0 | 0.00 | 0.00 | 0.00 | 79 | 1010.9 |
| 20260904111149 | 63 | 42 | 1.0 | 2.0 | 0.00 | 0.00 | 0.00 | 79 | 1010.9 |
| 20260904110644 | 63 | 67 | 1.0 | 2.0 | 0.00 | 0.00 | 0.00 | 79 | 1010.6 |
| 20260904110143 | 63 | 61 | 0.0 | 0.0 | 0.00 | 0.00 | 0.00 | 79 | 1010.6 |
| 20260904105638 | 63 | 210 | 0.0 | 1.0 | 0.00 | 0.00 | 0.00 | 79 | 1010.6 |
| 20260904105133 | 63 | 255 | 1.0 | 1.0 | 0.00 | 0.00 | 0.00 | 79 | 1010.9 |
| 20260904104629 | 63 | 132 | 0.0 | 0.0 | 0.00 | 0.00 | 0.00 | 78 | 1010.5 |
| 20260904104124 | 63 | 229 | 1.0 | 1.0 | 0.00 | 0.00 | 0.00 | 79 | 1010.6 |
| 20260904103620 | 63 | 69 | 0.0 | 0.0 | 0.00 | 0.00 | 0.00 | 79 | 1010.5 |
| 20260904103116 | 63 | 61 | 0.0 | 1.0 | 0.00 | 0.00 | 0.00 | 78 | 1010.5 |
| 20260904102612 | 63 | 223 | 1.0 | 1.0 | 0.00 | 0.00 | 0.00 | 78 | 1010.3 |
| 20260904102107 | 63 | 174 | 0.0 | 0.0 | 0.00 | 0.00 | 0.00 | 78 | 1010.4 |
| 20260904101603 | 63 | 14 | 0.0 | 0.0 | 0.00 | 0.00 | 0.00 | 78 | 1010.3 |
| 20260904101058 | 63 | 284 | 1.0 | 2.0 | 0.00 | 0.00 | 0.00 | 77 | 1010.5 |
| 20260904100555 | 64 | 273 | 2.0 | 2.0 | 0.00 | 0.00 | 0.00 | 77 | 1010.3 |
| 20260904100049 | 64 | 238 | 2.0 | 2.0 | 0.00 | 0.00 | 0.00 | 77 | 1010.2 |
| 20260904095544 | 64 | 243 | 2.0 | 2.0 | 0.00 | 0.00 | 0.00 | 76 | 1010.3 |
| 20260904095039 | 64 | 264 | 2.0 | 2.0 | 0.00 | 0.00 | 0.00 | 76 | 1010.2 |
| 20260904094533 | 64 | 240 | 4.0 | 5.0 | 0.00 | 0.00 | 0.00 | 76 | 1010.2 |
| 20260904094028 | 64 | 261 | 3.0 | 4.0 | 0.00 | 0.00 | 0.00 | 76 | 1010.0 |
| 20260904093525 | 64 | 294 | 2.0 | 2.0 | 0.00 | 0.00 | 0.00 | 75 | 1010.4 |
| 20260904093020 | 64 | 282 | 2.0 | 4.0 | 0.00 | 0.00 | 0.00 | 75 | 1010.1 |
| 20260904092516 | 64 | 264 | 2.0 | 2.0 | 0.00 | 0.00 | 0.00 | 75 | 1010.1 |
| 20260904092012 | 64 | 249 | 3.0 | 5.0 | 0.00 | 0.00 | 0.00 | 74 | 1010.0 |
| 20260904091508 | 65 | 255 | 3.0 | 4.0 | 0.00 | 0.00 | 0.00 | 74 | 1010.0 |
| 20260904091008 | 65 | 262 | 1.0 | 1.0 | 0.00 | 0.00 | 0.00 | 74 | 1009.9 |
| 20260904090503 | 65 | 250 | 4.0 | 5.0 | 0.00 | 0.00 | 0.00 | 73 | 1010.2 |
| 20260904090003 | 65 | 256 | 4.0 | 5.0 | 0.00 | 0.00 | 0.00 | 73 | 1010.0 |
| 20260904085458 | 66 | 281 | 4.0 | 5.0 | 0.00 | 0.00 | 0.00 | 73 | 1010.0 |
| 20260904084953 | 66 | 243 | 1.0 | 2.0 | 0.00 | 0.00 | 0.00 | 73 | 1010.2 |
| 20260904084449 | 66 | 239 | 3.0 | 4.0 | 0.00 | 0.00 | 0.00 | 73 | 1010.2 |
| 20260904083944 | 66 | 258 | 2.0 | 2.0 | 0.00 | 0.00 | 0.00 | 72 | 1010.0 |
| 20260904083441 | 66 | 227 | 2.0 | 2.0 | 0.00 | 0.00 | 0.00 | 72 | 1010.2 |
| 20260904082936 | 66 | 235 | 5.0 | 6.0 | 0.00 | 0.00 | 0.00 | 72 | 1010.1 |
| 20260904082431 | 66 | 240 | 3.0 | 6.0 | 0.00 | 0.00 | 0.00 | 71 | 1010.2 |
| 20260904081926 | 66 | 277 | 2.0 | 2.0 | 0.00 | 0.00 | 0.00 | 71 | 1010.2 |
| 20260904081422 | 66 | 275 | 2.0 | 2.0 | 0.00 | 0.00 | 0.00 | 71 | 1010.0 |
| 20260904080918 | 66 | 266 | 1.0 | 1.0 | 0.00 | 0.00 | 0.00 | 70 | 1010.1 |
| 20260904080413 | 67 | 251 | 1.0 | 2.0 | 0.00 | 0.00 | 0.00 | 70 | 1010.2 |
| 20260904075909 | 67 | 246 | 2.0 | 4.0 | 0.00 | 0.00 | 0.00 | 70 | 1010.0 |
| 20260904075404 | 67 | 243 | 3.0 | 4.0 | 0.00 | 0.00 | 0.00 | 70 | 1010.0 |
| 20260904074903 | 67 | 246 | 1.0 | 2.0 | 0.00 | 0.00 | 0.00 | 69 | 1010.1 |
| 20260904074358 | 67 | 255 | 3.0 | 4.0 | 0.00 | 0.00 | 0.00 | 70 | 1010.0 |
| 20260904073854 | 67 | 238 | 3.0 | 4.0 | 0.00 | 0.00 | 0.00 | 69 | 1009.8 |
| 20260904073349 | 67 | 243 | 4.0 | 5.0 | 0.00 | 0.00 | 0.00 | 69 | 1009.8 |
| 20260904072844 | 67 | 296 | 3.0 | 4.0 | 0.00 | 0.00 | 0.00 | 69 | 1009.8 |
| 20260904072339 | 67 | 230 | 1.0 | 2.0 | 0.00 | 0.00 | 0.00 | 69 | 1009.8 |
| 20260904071834 | 68 | 262 | 2.0 | 2.0 | 0.00 | 0.00 | 0.00 | 68 | 1009.8 |
| 20260904071330 | 68 | 259 | 3.0 | 5.0 | 0.00 | 0.00 | 0.00 | 68 | 1009.8 |
| 20260904070825 | 68 | 243 | 3.0 | 4.0 | 0.00 | 0.00 | 0.00 | 68 | 1009.7 |
| 20260904070323 | 68 | 258 | 2.0 | 2.0 | 0.00 | 0.00 | 0.00 | 67 | 1009.9 |
| 20260904065818 | 68 | 250 | 3.0 | 4.0 | 0.00 | 0.00 | 0.00 | 67 | 1009.8 |
| 20260904065314 | 68 | 341 | 3.0 | 4.0 | 0.00 | 0.00 | 0.00 | 67 | 1010.0 |
| 20260904064809 | 68 | 280 | 3.0 | 4.0 | 0.00 | 0.00 | 0.00 | 66 | 1009.9 |
| 20260904064305 | 68 | 235 | 1.0 | 2.0 | 0.00 | 0.00 | 0.00 | 65 | 1009.8 |
| 20260904063801 | 68 | 243 | 3.0 | 4.0 | 0.00 | 0.00 | 0.00 | 65 | 1009.9 |
| 20260904063256 | 68 | 271 | 3.0 | 4.0 | 0.00 | 0.00 | 0.00 | 64 | 1009.7 |
| 20260904062752 | 68 | 249 | 3.0 | 4.0 | 0.00 | 0.00 | 0.00 | 64 | 1010.0 |
| 20260904062248 | 69 | 242 | 2.0 | 2.0 | 0.00 | 0.00 | 0.00 | 63 | 1009.7 |
| 20260904061743 | 69 | 245 | 4.0 | 5.0 | 0.00 | 0.00 | 0.00 | 63 | 1009.7 |
| 20260904061239 | 69 | 229 | 2.0 | 2.0 | 0.00 | 0.00 | 0.00 | 63 | 1009.7 |
| 20260904060736 | 69 | 263 | 2.0 | 2.0 | 0.00 | 0.00 | 0.00 | 62 | 1009.5 |
| 20260904060231 | 69 | 262 | 3.0 | 4.0 | 0.00 | 0.00 | 0.00 | 61 | 1009.4 |
| 20260904055726 | 69 | 295 | 3.0 | 4.0 | 0.00 | 0.00 | 0.00 | 61 | 1009.5 |
| 20260904055221 | 69 | 278 | 3.0 | 4.0 | 0.00 | 0.00 | 0.00 | 60 | 1009.4 |
| 20260904054717 | 69 | 262 | 1.0 | 1.0 | 0.00 | 0.00 | 0.00 | 60 | 1009.5 |
| 20260904054213 | 69 | 283 | 3.0 | 4.0 | 0.00 | 0.00 | 0.00 | 60 | 1009.4 |
| 20260904053708 | 70 | 27 | 0.0 | 0.0 | 0.00 | 0.00 | 0.00 | 58 | 1009.6 |
| 20260904053207 | 70 | 255 | 3.0 | 4.0 | 0.00 | 0.00 | 0.00 | 58 | 1009.4 |
| 20260904052704 | 70 | 244 | 3.0 | 4.0 | 0.00 | 0.00 | 0.00 | 57 | 1009.5 |
| 20260904052200 | 70 | 247 | 2.0 | 2.0 | 0.00 | 0.00 | 0.00 | 56 | 1009.6 |
| 20260904051656 | 70 | 247 | 2.0 | 2.0 | 0.00 | 0.00 | 0.00 | 55 | 1009.6 |
| 20260904051150 | 71 | 256 | 4.0 | 6.0 | 0.00 | 0.00 | 0.00 | 55 | 1009.6 |
| 20260904050646 | 71 | 258 | 4.0 | 5.0 | 0.00 | 0.00 | 0.00 | 54 | 1009.6 |
| 20260904050137 | 71 | 207 | 3.0 | 4.0 | 0.00 | 0.00 | 0.00 | 53 | 1009.5 |
| 20260904045636 | 72 | 296 | 6.0 | 7.0 | 0.00 | 0.00 | 0.00 | 52 | 1009.8 |
| 20260904045131 | 72 | 263 | 4.0 | 5.0 | 0.00 | 0.00 | 0.00 | 50 | 1009.7 |
| 20260904044626 | 72 | 262 | 5.0 | 7.0 | 0.00 | 0.00 | 0.00 | 50 | 1009.5 |
| 20260904044123 | 72 | 235 | 5.0 | 7.0 | 0.00 | 0.00 | 0.00 | 48 | 1009.4 |
| 20260904043619 | 73 | 253 | 6.0 | 8.0 | 0.00 | 0.00 | 0.00 | 48 | 1009.4 |
| 20260904043115 | 73 | 264 | 2.0 | 2.0 | 0.00 | 0.00 | 0.00 | 47 | 1009.3 |
| 20260904042611 | 73 | 234 | 3.0 | 4.0 | 0.00 | 0.00 | 0.00 | 46 | 1009.4 |
| 20260904042106 | 74 | 261 | 4.0 | 5.0 | 0.00 | 0.00 | 0.00 | 45 | 1009.2 |
| 20260904041601 | 74 | 250 | 2.0 | 2.0 | 0.00 | 0.00 | 0.00 | 43 | 1009.3 |
| 20260904041057 | 74 | 298 | 4.0 | 5.0 | 0.00 | 0.00 | 0.00 | 41 | 1009.2 |
| 20260904040557 | 74 | 276 | 2.0 | 2.0 | 0.00 | 0.00 | 0.00 | 43 | 1009.1 |
| 20260904040054 | 74 | 293 | 5.0 | 6.0 | 0.00 | 0.00 | 0.00 | 44 | 1009.0 |
| 20260904035549 | 74 | 241 | 3.0 | 4.0 | 0.00 | 0.00 | 0.00 | 48 | 1008.9 |
| 20260904035049 | 75 | 259 | 2.0 | 2.0 | 0.00 | 0.00 | 0.00 | 47 | 1009.1 |
| 20260904034543 | 75 | 242 | 1.0 | 1.0 | 0.00 | 0.00 | 0.00 | 47 | 1008.8 |
| 20260904034039 | 75 | 258 | 0.0 | 0.0 | 0.00 | 0.00 | 0.00 | 47 | 1009.0 |
| 20260904033535 | 75 | 264 | 1.0 | 2.0 | 0.00 | 0.00 | 0.00 | 47 | 1009.1 |
| 20260904033032 | 75 | 262 | 1.0 | 1.0 | 0.00 | 0.00 | 0.00 | 47 | 1008.7 |
| 20260904032528 | 76 | 271 | 0.0 | 0.0 | 0.00 | 0.00 | 0.00 | 47 | 1008.6 |
| 20260904032026 | 76 | 292 | 0.0 | 1.0 | 0.00 | 0.00 | 0.00 | 46 | 1008.4 |
| 20260904031521 | 76 | 307 | 0.0 | 0.0 | 0.00 | 0.00 | 0.00 | 45 | 1008.5 |
| 20260904031017 | 76 | 269 | 1.0 | 1.0 | 0.00 | 0.00 | 0.00 | 46 | 1008.5 |
| 20260904030513 | 76 | 313 | 0.0 | 0.0 | 0.00 | 0.00 | 0.00 | 47 | 1008.5 |
| 20260904030008 | 76 | 345 | 0.0 | 0.0 | 0.00 | 0.00 | 0.00 | 46 | 1008.5 |
| 20260904025504 | 77 | 294 | 0.0 | 0.0 | 0.00 | 0.00 | 0.00 | 45 | 1008.4 |
| 20260904025004 | 77 | 294 | 0.0 | 0.0 | 0.00 | 0.00 | 0.00 | 44 | 1008.4 |
| 20260904024459 | 78 | 294 | 0.0 | 0.0 | 0.00 | 0.00 | 0.00 | 45 | 1008.7 |
| 20260904023955 | 78 | 292 | 1.0 | 1.0 | 0.00 | 0.00 | 0.00 | 44 | 1008.8 |
| 20260904023451 | 79 | 273 | 2.0 | 2.0 | 0.00 | 0.00 | 0.00 | 44 | 1008.5 |
| 20260904022950 | 79 | 269 | 1.0 | 2.0 | 0.00 | 0.00 | 0.00 | 41 | 1008.7 |
| 20260904022446 | 79 | 355 | 0.0 | 1.0 | 0.00 | 0.00 | 0.00 | 42 | 1008.4 |
| 20260904021943 | 80 | 69 | 0.0 | 0.0 | 0.00 | 0.00 | 0.00 | 41 | 1008.6 |
| 20260904021439 | 81 | 69 | 0.0 | 0.0 | 0.00 | 0.00 | 0.00 | 40 | 1008.6 |
| 20260904020939 | 82 | 69 | 0.0 | 0.0 | 0.00 | 0.00 | 0.00 | 38 | 1008.7 |
| 20260904020434 | 82 | 354 | 0.0 | 0.0 | 0.00 | 0.00 | 0.00 | 37 | 1008.9 |
| 20260904015932 | 82 | 354 | 0.0 | 1.0 | 0.00 | 0.00 | 0.00 | 33 | 1008.9 |
| 20260904015428 | 83 | 60 | 0.0 | 0.0 | 0.00 | 0.00 | 0.00 | 36 | 1009.0 |
| 20260904014926 | 83 | 321 | 0.0 | 0.0 | 0.00 | 0.00 | 0.00 | 35 | 1008.8 |
| 20260904014422 | 84 | 132 | 1.0 | 1.0 | 0.00 | 0.00 | 0.00 | 31 | 1008.8 |
| 20260904013917 | 84 | 15 | 1.0 | 1.0 | 0.00 | 0.00 | 0.00 | 31 | 1009.0 |
| 20260904013413 | 85 | 280 | 0.0 | 0.0 | 0.00 | 0.00 | 0.00 | 31 | 1008.9 |
| 20260904012909 | 85 | 12 | 1.0 | 1.0 | 0.00 | 0.00 | 0.00 | 31 | 1009.0 |
| 20260904012409 | 86 | 24 | 0.0 | 0.0 | 0.00 | 0.00 | 0.00 | 29 | 1009.0 |
| 20260904011903 | 85 | 31 | 0.0 | 0.0 | 0.00 | 0.00 | 0.00 | 29 | 1008.7 |
| 20260904011358 | 86 | 19 | 0.0 | 0.0 | 0.00 | 0.00 | 0.00 | 29 | 1008.9 |
| 20260904010853 | 86 | 37 | 0.0 | 0.0 | 0.00 | 0.00 | 0.00 | 29 | 1009.0 |
| 20260904010350 | 86 | 55 | 0.0 | 1.0 | 0.00 | 0.00 | 0.00 | 29 | 1008.8 |
| 20260904005844 | 87 | 58 | 0.0 | 0.0 | 0.00 | 0.00 | 0.00 | 27 | 1009.0 |
| 20260904005340 | 86 | 81 | 0.0 | 1.0 | 0.00 | 0.00 | 0.00 | 28 | 1009.0 |
| 20260904004835 | 86 | 239 | 0.0 | 1.0 | 0.00 | 0.00 | 0.00 | 29 | 1009.0 |
| 20260904004332 | 87 | 339 | 1.0 | 1.0 | 0.00 | 0.00 | 0.00 | 28 | 1009.1 |
| 20260904003832 | 86 | 250 | 1.0 | 2.0 | 0.00 | 0.00 | 0.00 | 28 | 1009.1 |
| 20260904003328 | 86 | 291 | 2.0 | 2.0 | 0.00 | 0.00 | 0.00 | 28 | 1009.1 |
| 20260904002823 | 85 | 283 | 0.0 | 1.0 | 0.00 | 0.00 | 0.00 | 29 | 1009.2 |
| 20260904002319 | 86 | 275 | 3.0 | 4.0 | 0.00 | 0.00 | 0.00 | 29 | 1009.1 |
| 20260904001818 | 86 | 39 | 1.0 | 2.0 | 0.00 | 0.00 | 0.00 | 29 | 1009.2 |
| 20260904001313 | 86 | 259 | 4.0 | 5.0 | 0.00 | 0.00 | 0.00 | 30 | 1009.1 |
| 20260904000808 | 86 | 247 | 4.0 | 5.0 | 0.00 | 0.00 | 0.00 | 28 | 1009.1 |
| 20260904000307 | 86 | 276 | 1.0 | 1.0 | 0.00 | 0.00 | 0.00 | 28 | 1009.2 |
| 20260903235802 | 86 | 258 | 2.0 | 2.0 | 0.00 | 0.00 | 0.00 | 29 | 1009.3 |
| 20260903235259 | 87 | 273 | 4.0 | 5.0 | 0.00 | 0.00 | 0.00 | 29 | 1009.5 |
| 20260903234757 | 86 | 24 | 0.0 | 1.0 | 0.00 | 0.00 | 0.00 | 30 | 1009.5 |
| 20260903234254 | 86 | 22 | 1.0 | 1.0 | 0.00 | 0.00 | 0.00 | 30 | 1009.5 |
| 20260903233750 | 87 | 64 | 2.0 | 2.0 | 0.00 | 0.00 | 0.00 | 28 | 1009.7 |
| 20260903233246 | 87 | 9 | 1.0 | 1.0 | 0.00 | 0.00 | 0.00 | 29 | 1009.5 |
| 20260903232744 | 86 | 257 | 2.0 | 2.0 | 0.00 | 0.00 | 0.00 | 29 | 1009.7 |
| 20260903232241 | 87 | 274 | 3.0 | 4.0 | 0.00 | 0.00 | 0.00 | 29 | 1009.7 |
| 20260903231739 | 85 | 58 | 0.0 | 0.0 | 0.00 | 0.00 | 0.00 | 29 | 1009.7 |
| 20260903231235 | 85 | 314 | 2.0 | 4.0 | 0.00 | 0.00 | 0.00 | 30 | 1010.0 |
| 20260903230730 | 86 | 0 | 1.0 | 1.0 | 0.00 | 0.00 | 0.00 | 29 | 1009.8 |
| 20260903230225 | 87 | 254 | 2.0 | 2.0 | 0.00 | 0.00 | 0.00 | 29 | 1010.0 |
| 20260903225722 | 87 | 228 | 1.0 | 2.0 | 0.00 | 0.00 | 0.00 | 30 | 1010.0 |
| 20260903225218 | 86 | 310 | 1.0 | 1.0 | 0.00 | 0.00 | 0.00 | 29 | 1010.1 |
| 20260903224714 | 86 | 245 | 3.0 | 4.0 | 0.00 | 0.00 | 0.00 | 29 | 1010.2 |
| 20260903224210 | 85 | 264 | 2.0 | 2.0 | 0.00 | 0.00 | 0.00 | 30 | 1010.1 |
| 20260903223704 | 86 | 293 | 3.0 | 4.0 | 0.00 | 0.00 | 0.00 | 31 | 1010.5 |
| 20260903223203 | 87 | 313 | 2.0 | 2.0 | 0.00 | 0.00 | 0.00 | 29 | 1010.2 |
| 20260903222703 | 87 | 330 | 1.0 | 2.0 | 0.00 | 0.00 | 0.00 | 29 | 1010.4 |
| 20260903222202 | 85 | 322 | 0.0 | 1.0 | 0.00 | 0.00 | 0.00 | 31 | 1010.5 |
| 20260903221657 | 85 | 262 | 3.0 | 4.0 | 0.00 | 0.00 | 0.00 | 31 | 1010.6 |
| 20260903221156 | 85 | 80 | 1.0 | 1.0 | 0.00 | 0.00 | 0.00 | 30 | 1010.8 |
| 20260903220655 | 84 | 156 | 1.0 | 1.0 | 0.00 | 0.00 | 0.00 | 32 | 1010.5 |
| 20260903220149 | 84 | 264 | 4.0 | 5.0 | 0.00 | 0.00 | 0.00 | 30 | 1011.1 |
| 20260903215648 | 83 | 211 | 4.0 | 5.0 | 0.00 | 0.00 | 0.00 | 32 | 1011.1 |
| 20260903215144 | 84 | 277 | 4.0 | 6.0 | 0.00 | 0.00 | 0.00 | 31 | 1011.1 |
| 20260903214642 | 84 | 251 | 2.0 | 2.0 | 0.00 | 0.00 | 0.00 | 32 | 1011.0 |
| 20260903214138 | 84 | 241 | 3.0 | 5.0 | 0.00 | 0.00 | 0.00 | 31 | 1011.2 |
| 20260903213632 | 84 | 288 | 4.0 | 5.0 | 0.00 | 0.00 | 0.00 | 32 | 1011.4 |
| 20260903213129 | 85 | 60 | 2.0 | 2.0 | 0.00 | 0.00 | 0.00 | 30 | 1011.1 |
| 20260903212624 | 85 | 89 | 1.0 | 1.0 | 0.00 | 0.00 | 0.00 | 30 | 1011.4 |
| 20260903212119 | 83 | 318 | 1.0 | 2.0 | 0.00 | 0.00 | 0.00 | 32 | 1011.2 |
| 20260903211609 | 83 | 228 | 3.0 | 5.0 | 0.00 | 0.00 | 0.00 | 33 | 1011.1 |
| 20260903211106 | 84 | 79 | 1.0 | 2.0 | 0.00 | 0.00 | 0.00 | 33 | 1011.4 |
| 20260903210601 | 83 | 30 | 2.0 | 2.0 | 0.00 | 0.00 | 0.00 | 35 | 1011.5 |
| 20260903210056 | 82 | 84 | 0.0 | 1.0 | 0.00 | 0.00 | 0.00 | 34 | 1011.6 |
| 20260903205555 | 83 | 29 | 3.0 | 4.0 | 0.00 | 0.00 | 0.00 | 33 | 1011.6 |
| 20260903205050 | 83 | 12 | 1.0 | 2.0 | 0.00 | 0.00 | 0.00 | 33 | 1011.6 |
| 20260903204546 | 81 | 331 | 1.0 | 2.0 | 0.00 | 0.00 | 0.00 | 36 | 1011.8 |
| 20260903204041 | 81 | 91 | 1.0 | 1.0 | 0.00 | 0.00 | 0.00 | 34 | 1011.9 |
| 20260903203537 | 80 | 265 | 2.0 | 2.0 | 0.00 | 0.00 | 0.00 | 36 | 1011.7 |
| 20260903203036 | 80 | 221 | 2.0 | 4.0 | 0.00 | 0.00 | 0.00 | 36 | 1012.0 |
| 20260903202532 | 80 | 293 | 7.0 | 9.0 | 0.00 | 0.00 | 0.00 | 38 | 1011.7 |
| 20260903202027 | 81 | 259 | 4.0 | 5.0 | 0.00 | 0.00 | 0.00 | 36 | 1012.1 |
| 20260903201522 | 82 | 306 | 1.0 | 1.0 | 0.00 | 0.00 | 0.00 | 36 | 1011.9 |
| 20260903201021 | 81 | 217 | 1.0 | 1.0 | 0.00 | 0.00 | 0.00 | 38 | 1011.9 |
| 20260903200516 | 81 | 25 | 3.0 | 4.0 | 0.00 | 0.00 | 0.00 | 36 | 1012.0 |
| 20260903200011 | 81 | 43 | 0.0 | 1.0 | 0.00 | 0.00 | 0.00 | 36 | 1012.3 |
| 20260903195507 | 80 | 16 | 1.0 | 2.0 | 0.00 | 0.00 | 0.00 | 37 | 1012.3 |
| 20260903195003 | 79 | 9 | 1.0 | 2.0 | 0.00 | 0.00 | 0.00 | 38 | 1012.5 |
| 20260903194457 | 79 | 286 | 0.0 | 1.0 | 0.00 | 0.00 | 0.00 | 38 | 1012.7 |
| 20260903193953 | 78 | 260 | 3.0 | 4.0 | 0.00 | 0.00 | 0.00 | 39 | 1012.8 |
| 20260903193449 | 79 | 231 | 3.0 | 4.0 | 0.00 | 0.00 | 0.00 | 39 | 1012.8 |
| 20260903192943 | 78 | 351 | 1.0 | 1.0 | 0.00 | 0.00 | 0.00 | 38 | 1012.7 |
| 20260903192441 | 78 | 245 | 3.0 | 4.0 | 0.00 | 0.00 | 0.00 | 40 | 1012.8 |
| 20260903191935 | 78 | 237 | 1.0 | 2.0 | 0.00 | 0.00 | 0.00 | 39 | 1012.8 |
| 20260903191432 | 77 | 32 | 2.0 | 2.0 | 0.00 | 0.00 | 0.00 | 39 | 1012.6 |
| 20260903190931 | 78 | 290 | 1.0 | 1.0 | 0.00 | 0.00 | 0.00 | 40 | 1012.7 |
| 20260903190431 | 76 | 269 | 3.0 | 5.0 | 0.00 | 0.00 | 0.00 | 42 | 1012.9 |
| 20260903185925 | 78 | 273 | 2.0 | 2.0 | 0.00 | 0.00 | 0.00 | 40 | 1013.1 |
| 20260903185421 | 78 | 65 | 0.0 | 1.0 | 0.00 | 0.00 | 0.00 | 40 | 1013.3 |
| 20260903184916 | 77 | 172 | 2.0 | 4.0 | 0.00 | 0.00 | 0.00 | 40 | 1013.3 |
| 20260903184413 | 76 | 81 | 1.0 | 1.0 | 0.00 | 0.00 | 0.00 | 40 | 1013.4 |
| 20260903183912 | 77 | 135 | 1.0 | 1.0 | 0.00 | 0.00 | 0.00 | 42 | 1013.6 |
| 20260903183407 | 75 | 14 | 2.0 | 2.0 | 0.00 | 0.00 | 0.00 | 43 | 1013.6 |
| 20260903182907 | 75 | 258 | 3.0 | 4.0 | 0.00 | 0.00 | 0.00 | 41 | 1013.8 |
| 20260903182405 | 75 | 43 | 1.0 | 1.0 | 0.00 | 0.00 | 0.00 | 42 | 1013.9 |
| 20260903181900 | 75 | 249 | 2.0 | 2.0 | 0.00 | 0.00 | 0.00 | 42 | 1013.8 |
| 20260903181355 | 75 | 290 | 4.0 | 5.0 | 0.00 | 0.00 | 0.00 | 42 | 1013.9 |
| 20260903180855 | 75 | 243 | 3.0 | 4.0 | 0.00 | 0.00 | 0.00 | 44 | 1013.7 |
| 20260903180349 | 74 | 311 | 3.0 | 4.0 | 0.00 | 0.00 | 0.00 | 44 | 1013.8 |
| 20260903175849 | 73 | 243 | 2.0 | 2.0 | 0.00 | 0.00 | 0.00 | 45 | 1013.7 |
| 20260903175343 | 73 | 264 | 2.0 | 2.0 | 0.00 | 0.00 | 0.00 | 46 | 1013.9 |
| 20260903174837 | 73 | 275 | 2.0 | 2.0 | 0.00 | 0.00 | 0.00 | 46 | 1013.7 |
| 20260903174332 | 73 | 231 | 1.0 | 1.0 | 0.00 | 0.00 | 0.00 | 47 | 1013.7 |
| 20260903173827 | 72 | 243 | 2.0 | 4.0 | 0.00 | 0.00 | 0.00 | 47 | 1013.8 |
| 20260903173322 | 73 | 274 | 2.0 | 2.0 | 0.00 | 0.00 | 0.00 | 45 | 1013.9 |
| 20260903172818 | 72 | 238 | 1.0 | 2.0 | 0.00 | 0.00 | 0.00 | 47 | 1013.8 |
| 20260903172313 | 72 | 249 | 4.0 | 5.0 | 0.00 | 0.00 | 0.00 | 47 | 1014.0 |
| 20260903171808 | 71 | 276 | 2.0 | 2.0 | 0.00 | 0.00 | 0.00 | 49 | 1013.8 |
| 20260903171304 | 71 | 297 | 5.0 | 5.0 | 0.00 | 0.00 | 0.00 | 49 | 1014.0 |
| 20260903170803 | 71 | 262 | 3.0 | 4.0 | 0.00 | 0.00 | 0.00 | 49 | 1014.0 |
| 20260903170258 | 70 | 30 | 0.0 | 1.0 | 0.00 | 0.00 | 0.00 | 50 | 1014.0 |
| 20260903165756 | 70 | 248 | 4.0 | 5.0 | 0.00 | 0.00 | 0.00 | 52 | 1014.0 |
| 20260903165251 | 69 | 38 | 0.0 | 1.0 | 0.00 | 0.00 | 0.00 | 52 | 1014.0 |
| 20260903164745 | 69 | 251 | 3.0 | 4.0 | 0.00 | 0.00 | 0.00 | 53 | 1014.3 |
| 20260903164241 | 69 | 219 | 1.0 | 1.0 | 0.00 | 0.00 | 0.00 | 55 | 1014.2 |
| 20260903163740 | 68 | 212 | 1.0 | 1.0 | 0.00 | 0.00 | 0.00 | 55 | 1014.3 |
| 20260903163237 | 68 | 281 | 3.0 | 4.0 | 0.00 | 0.00 | 0.00 | 56 | 1014.2 |
| 20260903162733 | 67 | 239 | 3.0 | 5.0 | 0.00 | 0.00 | 0.00 | 56 | 1014.3 |
| 20260903162229 | 67 | 161 | 1.0 | 1.0 | 0.00 | 0.00 | 0.00 | 56 | 1014.4 |
| 20260903161724 | 66 | 293 | 1.0 | 2.0 | 0.00 | 0.00 | 0.00 | 59 | 1014.2 |
| 20260903161220 | 66 | 264 | 2.0 | 2.0 | 0.00 | 0.00 | 0.00 | 59 | 1014.3 |
| 20260903160715 | 66 | 241 | 5.0 | 6.0 | 0.00 | 0.00 | 0.00 | 58 | 1014.4 |
| 20260903160214 | 66 | 14 | 0.0 | 1.0 | 0.00 | 0.00 | 0.00 | 61 | 1014.3 |
| 20260903155713 | 65 | 275 | 3.0 | 4.0 | 0.00 | 0.00 | 0.00 | 61 | 1014.1 |
| 20260903155208 | 65 | 192 | 2.0 | 2.0 | 0.00 | 0.00 | 0.00 | 62 | 1014.3 |
| 20260903154704 | 64 | 275 | 2.0 | 2.0 | 0.00 | 0.00 | 0.00 | 63 | 1014.1 |
| 20260903154200 | 64 | 231 | 1.0 | 1.0 | 0.00 | 0.00 | 0.00 | 63 | 1014.4 |
| 20260903153655 | 63 | 276 | 2.0 | 2.0 | 0.00 | 0.00 | 0.00 | 65 | 1014.2 |
| 20260903153151 | 63 | 252 | 3.0 | 4.0 | 0.00 | 0.00 | 0.00 | 66 | 1014.3 |
| 20260903152647 | 63 | 251 | 2.0 | 2.0 | 0.00 | 0.00 | 0.00 | 66 | 1014.3 |
| 20260903152143 | 62 | 269 | 2.0 | 2.0 | 0.00 | 0.00 | 0.00 | 67 | 1014.4 |
| 20260903151643 | 62 | 269 | 1.0 | 1.0 | 0.00 | 0.00 | 0.00 | 69 | 1014.2 |
| 20260903151142 | 61 | 349 | 1.0 | 1.0 | 0.00 | 0.00 | 0.00 | 69 | 1014.5 |
| 20260903150637 | 61 | 105 | 0.0 | 0.0 | 0.00 | 0.00 | 0.00 | 71 | 1014.5 |
| 20260903150133 | 61 | 248 | 5.0 | 6.0 | 0.00 | 0.00 | 0.00 | 71 | 1014.5 |
| 20260903145632 | 60 | 265 | 2.0 | 2.0 | 0.00 | 0.00 | 0.00 | 73 | 1014.1 |
| 20260903145127 | 60 | 187 | 0.0 | 0.0 | 0.00 | 0.00 | 0.00 | 73 | 1014.3 |
| 20260903144625 | 59 | 260 | 2.0 | 2.0 | 0.00 | 0.00 | 0.00 | 74 | 1014.2 |
| 20260903144122 | 59 | 244 | 4.0 | 6.0 | 0.00 | 0.00 | 0.00 | 74 | 1014.2 |
| 20260903143618 | 59 | 280 | 1.0 | 1.0 | 0.00 | 0.00 | 0.00 | 74 | 1014.2 |
| 20260903143114 | 59 | 309 | 0.0 | 1.0 | 0.00 | 0.00 | 0.00 | 75 | 1014.0 |
| 20260903142609 | 59 | 262 | 3.0 | 6.0 | 0.00 | 0.00 | 0.00 | 76 | 1014.3 |
| 20260903142106 | 58 | 305 | 2.0 | 2.0 | 0.00 | 0.00 | 0.00 | 76 | 1014.1 |
| 20260903141601 | 58 | 241 | 3.0 | 4.0 | 0.00 | 0.00 | 0.00 | 76 | 1013.8 |
| 20260903141056 | 58 | 290 | 2.0 | 2.0 | 0.00 | 0.00 | 0.00 | 76 | 1013.9 |
| 20260903140552 | 58 | 269 | 2.0 | 2.0 | 0.00 | 0.00 | 0.00 | 76 | 1013.9 |
| 20260903140047 | 58 | 288 | 2.0 | 2.0 | 0.00 | 0.00 | 0.00 | 75 | 1014.0 |